Location: East Horndon
(51.5667°N, 0.3500°E)
Time: 14:06:03
(UTC+00:00)

SL-24 R/B - RUBIN 2 - Visible Passes

Search period start: 14 February 2026 00:00
Search period end: 24 February 2026 00:00
Orbit: 602 x 985 km, 64.6° (Epoch: 13 February)

Date Brightness Start Highest point End Pass type
(mag) Time Alt. Az. Time Alt. Az. Time Alt. Az.
14 Feb 6.2 03:20:44 19° NE 03:20:44 19° NE 03:21:57 10° NE visible
14 Feb 4.8 05:01:30 28° NNW 05:01:30 28° NNW 05:05:22 10° NNE visible
15 Feb 6.7 02:51:31 12° NE 02:51:31 12° NE 02:51:51 10° NE visible
15 Feb 5.0 04:32:17 29° N 04:32:17 29° N 04:35:20 10° NNE visible
15 Feb 5.6 06:13:25 10° NW 06:16:16 16° N 06:19:03 10° NNE visible
16 Feb 5.4 04:03:03 26° NNE 04:03:03 26° NNE 04:05:19 10° NNE visible
16 Feb 5.5 05:43:49 13° NW 05:45:58 17° NNW 05:48:53 10° NNE visible
17 Feb 5.9 03:33:48 20° NNE 03:33:48 20° NNE 03:35:18 10° NE visible
17 Feb 5.4 05:14:34 17° NW 05:15:40 18° NNW 05:18:45 10° NNE visible
18 Feb 6.4 03:04:31 15° NE 03:04:31 15° NE 03:05:16 10° NE visible
18 Feb 5.4 04:45:17 20° NNW 04:45:23 20° NNW 04:48:40 10° NNE visible
18 Feb 5.7 06:27:54 10° NNW 06:30:41 16° N 06:33:25 10° NE visible
19 Feb 5.5 04:15:59 21° N 04:15:59 21° N 04:18:35 10° NNE visible
19 Feb 5.7 05:57:39 10° NW 06:00:22 16° N 06:03:02 10° NE visible
20 Feb 5.8 03:46:41 19° N 03:46:41 19° N 03:48:32 10° NNE visible
20 Feb 5.7 05:27:27 10° NW 05:30:02 15° N 05:32:42 10° NE visible
21 Feb 6.2 03:17:21 16° NNE 03:17:21 16° NNE 03:18:30 10° NNE visible
21 Feb 5.7 04:58:07 13° NNW 04:59:44 16° N 05:02:25 10° NE visible
22 Feb 6.6 02:48:02 12° NNE 02:48:02 12° NNE 02:48:29 10° NNE visible
22 Feb 5.7 04:28:47 16° NNW 04:29:25 16° N 04:32:11 10° NNE visible
22 Feb 5.6 06:11:29 10° NNW 06:14:43 19° NNE 06:17:54 10° ENE visible
23 Feb 5.8 03:59:27 17° N 03:59:27 17° N 04:02:00 10° NNE visible
23 Feb 5.7 05:41:23 10° NNW 05:44:25 18° NNE 05:47:26 10° ENE visible
